Location: Buttermere
(51.3333°N, 1.5167°W)
Time: 07:10:14
(UTC+00:00)

USA 186 - Pass Details

Date: 18 September 2020
Orbit: 261 x 425 km, 96.9° (Epoch: 12 October)

Event Time Altitude Azimuth Distance (km) Brightness Sun altitude
Exits shadow 18:49:23 - 135° (SE) 1,868 4.5 -6.5°
Reaches altitude 10° 18:50:27 10° 127° (SE) 1,457 3.9 -6.7°
Maximum altitude 18:53:08 27° 68° (ENE) 844 2.8 -7.1°
Drops below altitude 10° 18:55:56 10° 9° (N) 1,519 4.6 -7.5°
Sets 18:58:10 0° 357° (N) 2,404 5.8 -7.9°
